Probability
0 0 0 0 0 0 0 0 0 0 0 0 2 6 9 9 11 17 23 24 26 29 29 26 25 28 32 33 35 37 38 40 43 43 41 39 40 41 41 40 40 42 44 44
0 0 0 0 0 0 0 0 0 0 0 1 2 4 7 8 11 16 22 25 29 30 29 24 22 24 25 27 29 33 37 39 40 40 38 36 36 37 37 37 38 39 38 38
0 0 0 0 0 0 0 0 0 0 0 2 2 3 6 10 13 17 22 27 30 31 29 24 21 19 18 19 20 24 31 34 35 35 34 33 34 34 34 34 34 32 29 29
0 0 0 0 0 0 0 0 0 0 0 1 1 4 10 17 20 20 25 30 30 30 29 25 21 18 15 14 14 17 22 25 28 30 30 31 32 32 31 29 28 25 23 22
0 0 0 0 0 0 0 0 0 0 0 0 0 4 14 23 25 24 28 34 34 33 30 25 20 16 14 13 13 13 15 18 21 23 24 26 27 27 26 25 24 22 20 19
0 0 0 0 0 0 0 0 0 0 0 0 0 3 12 22 26 27 32 37 38 35 30 24 18 16 14 14 12 11 12 15 16 17 19 19 20 21 20 20 20 19 18 17
0 0 0 0 0 0 0 0 0 0 0 0 0 2 10 20 27 32 37 40 38 31 25 20 16 14 13 13 12 12 13 14 15 16 16 16 16 16 15 14 14 14 13 11
0 0 0 0 0 0 0 0 0 0 0 0 0 3 11 21 30 37 40 38 33 24 17 14 11 10 9 10 10 12 14 15 14 13 13 14 14 13 12 10 8 8 6 5
0 0 0 0 0 0 0 0 0 0 0 0 0 3 9 19 28 34 33 30 25 18 12 9 7 6 6 6 8 11 14 13 11 10 10 10 11 10 9 6 5 4 3 3
0 0 0 0 0 0 0 0 0 0 0 0 0 2 7 16 24 28 24 21 18 14 10 7 4 2 3 3 5 7 9 9 7 6 6 6 6 6 5 4 3 3 3 3
0 0 0 0 0 0 0 0 0 0 0 0 0 2 6 13 22 26 23 20 17 13 10 7 3 1 1 1 2 3 4 4 4 3 3 3 2 2 2 3 3 3 3 3
0 0 0 0 0 0 0 0 0 0 0 0 0 3 7 12 19 25 25 22 18 13 8 6 3 1 0 0 1 1 2 2 1 1 1 1 0 0 1 2 2 2 2 1
0 0 0 0 0 0 0 0 0 0 0 0 1 4 10 13 19 24 25 22 17 11 7 4 3 1 0 0 0 0 1 1 0 0 0 0 0 0 0 1 1 1 1 0
0 0 0 0 0 0 0 0 0 0 0 0 1 4 8 13 20 24 23 19 15 10 6 4 3 2 0 0 0 0 0 0 0 0 0 0 0 0 0 0 0 0 0 0
1 1 0 0 0 0 0 0 0 0 1 1 2 5 8 14 21 23 21 16 12 9 6 4 3 1 0 0 0 0 0 0 0 0 0 0 0 0 0 0 0 0 0 0
2 2 1 0 0 0 0 0 0 1 2 2 3 7 13 17 18 18 16 12 9 7 5 4 2 1 0 0 0 0 0 0 0 0 0 0 0 0 0 0 0 0 0 0
2 2 2 1 0 0 0 0 0 1 2 3 5 9 14 16 14 13 11 9 7 6 5 4 2 1 1 0 0 0 0 0 0 0 0 0 0 0 0 0 0 0 0 0
1 1 1 1 0 0 0 0 0 1 3 5 8 10 12 12 11 11 10 9 8 7 6 4 3 2 2 1 0 0 0 0 0 0 0 0 0 0 0 0 0 0 0 0
0 0 0 0 0 0 0 0 1 2 4 6 7 8 8 8 9 10 9 9 8 7 5 3 3 2 2 1 0 0 0 0 0 0 0 0 0 0 0 0 0 0 0 0
0 0 0 0 0 0 0 0 1 2 3 4 5 4 4 4 6 8 7 6 4 3 2 1 1 1 1 0 0 0 0 0 0 0 0 0 0 0 0 0 0 0 0 0
0 0 0 0 0 0 0 0 1 2 3 4 4 3 3 4 5 6 4 2 1 0 0 0 0 0 0 0 0 0 0 0 0 0 0 0 0 0 0 0 0 0 0 0
0 0 0 0 0 0 0 1 2 2 3 4 4 4 4 4 3 3 1 0 0 0 0 0 0 0 0 0 0 0 0 0 0 0 0 0 0 0 0 0 0 0 0 0
0 0 0 0 0 0 0 1 2 1 2 4 5 4 3 2 1 1 0 0 0 0 0 0 0 0 0 0 0 0 0 0 0 0 0 0 0 0 0 0 0 0 0 0
0 0 0 0 0 0 1 2 1 1 2 3 4 2 0 0 0 0 0 0 0 0 0 0 0 0 0 0 0 0 0 0 0 0 0 0 0 0 0 0 0 0 0 0
0 0 0 0 0 0 1 2 1 1 1 2 1 0 0 0 0 0 0 0 0 0 0 0 0 0 0 0 0 0 0 0 0 0 0 0 0 0 0 0 0 0 0 0
0 0 0 0 0 0 1 1 1 0 0 1 0 0 0 0 0 0 0 0 0 0 0 0 0 0 0 0 0 0 0 0 0 0 0 0 0 0 0 0 0 0 0 0
Wind_Speed
12 12 12 12 13 13 11 10 9 9 9 9 8 8 11 11 10 11 11 10 11 12 13 11 10 9 9 8 8 8 8 6 5 3 3 2 2 2 2 2 3 3 3 3
10 13 12 8 7 10 11 8 5 7 8 6 7 10 11 10 9 9 10 11 12 13 12 10 10 9 9 8 8 8 8 8 6 4 3 2 2 1 2 2 3 3 4 4
10 7 4 6 8 9 10 8 5 5 6 7 8 9 11 11 8 8 9 10 12 12 11 10 10 9 9 9 8 8 8 8 7 6 3 3 1 1 2 3 3 4 4 3
9 5 4 7 8 8 8 6 4 6 7 6 8 8 9 9 8 8 9 10 11 10 10 10 10 9 9 8 8 8 8 8 7 6 5 5 3 3 3 3 3 4 4 4
7 5 5 7 7 6 6 3 4 6 7 6 8 9 8 12 11 9 9 11 11 11 10 10 10 9 8 8 7 7 8 8 7 7 7 5 4 3 3 3 4 4 4 4
9 4 5 7 5 4 6 4 5 6 7 9 8 8 6 9 10 11 11 12 12 12 11 10 10 9 8 8 8 8 8 8 7 7 7 6 6 5 5 5 4 3 3 4
7 8 7 7 6 6 8 6 4 4 4 7 7 6 2 7 10 15 16 14 12 12 11 10 9 9 8 9 8 8 8 8 7 7 7 7 7 6 6 5 5 4 4 4
6 6 7 7 7 6 8 9 6 4 6 7 7 3 3 6 9 12 14 14 13 11 10 10 9 9 8 8 8 8 8 8 7 7 7 7 7 5 5 6 5 5 4 4
4 5 6 6 6 6 7 8 6 6 8 4 4 3 5 8 10 13 14 14 12 11 10 10 9 9 8 8 7 7 7 7 7 7 7 7 7 6 6 6 5 5 5 4
4 5 6 6 7 6 7 7 4 5 5 6 3 2 3 8 9 11 13 14 13 11 10 10 9 8 8 7 7 8 7 7 7 7 6 6 6 6 5 6 6 6 5 5
6 6 6 7 7 5 6 6 5 6 5 6 4 1 4 9 12 13 14 14 13 12 11 9 8 8 7 7 6 6 6 6 6 7 6 6 5 6 6 6 6 5 5 6
5 5 7 7 8 9 8 7 6 6 7 7 4 2 2 7 9 11 13 14 13 12 11 10 9 8 7 7 6 6 6 6 6 6 5 5 5 5 6 6 5 5 6 6
7 5 6 5 6 8 8 7 7 7 7 6 5 2 4 6 8 10 14 15 13 12 11 10 8 7 6 6 6 5 5 5 5 5 6 5 5 5 5 5 5 5 6 6
4 5 6 5 5 5 8 10 8 7 7 6 4 2 5 7 10 11 14 14 13 11 11 10 8 7 6 6 5 5 5 4 5 6 6 6 6 6 5 5 5 5 5 6
3 7 6 6 7 9 10 11 9 8 9 7 3 3 5 8 10 12 13 13 13 12 11 9 8 7 6 6 5 5 5 4 5 5 6 6 5 5 5 5 5 5 5 6
3 7 8 9 9 9 10 9 8 7 7 6 4 5 8 10 10 11 12 12 12 12 11 10 8 7 6 6 6 5 5 5 5 5 5 5 5 5 5 5 5 5 6 6
6 7 9 9 8 7 5 6 5 5 7 6 5 6 9 10 10 10 9 10 11 11 11 10 9 7 6 6 6 5 4 4 5 5 5 5 5 6 5 6 6 6 6 6
6 7 6 7 7 4 1 4 5 6 9 10 9 9 10 10 10 9 8 9 10 11 11 10 9 8 7 6 6 4 4 4 5 5 5 5 4 5 5 5 6 6 5 5
5 5 6 5 5 3 3 6 6 5 8 10 9 10 11 11 11 9 7 8 9 10 10 9 9 9 7 6 6 5 4 4 5 5 5 5 5 5 5 5 5 5 4 4
4 4 5 6 5 3 4 6 4 2 4 6 6 7 8 7 4 6 8 10 11 11 9 9 9 8 7 6 5 4 5 5 5 5 5 5 5 6 5 5 4 4 4 4
3 4 6 6 5 1 6 9 6 2 3 3 4 6 6 3 5 12 12 12 11 11 10 9 8 7 7 6 5 5 5 5 5 5 5 6 5 5 5 4 3 3 3 4
3 2 3 4 3 2 9 8 7 5 3 4 5 7 8 11 15 15 14 13 12 11 10 9 8 7 6 6 6 6 5 5 5 5 5 5 3 4 5 3 3 3 3 3
2 3 3 2 2 3 5 5 5 4 4 5 7 9 11 12 14 14 13 12 11 10 9 8 8 8 7 6 6 6 5 5 5 5 4 4 4 3 3 2 2 1 1 1
2 3 2 2 3 5 6 6 6 5 6 7 8 9 11 12 14 14 12 11 11 10 9 8 9 8 7 7 6 6 6 5 5 5 4 3 3 3 3 2 2 3 4 3
6 4 2 1 2 4 6 5 6 6 7 8 8 9 10 12 13 12 11 11 10 9 9 8 8 8 8 8 7 6 6 5 5 4 3 3 4 4 4 5 5 5 5 4
3 3 3 2 4 2 2 3 3 5 7 8 8 9 10 11 12 11 11 10 10 10 9 8 8 9 8 8 7 6 6 5 4 4 3 3 3 3 4 5 4 7 5 5
Wind_Direction
212 228 234 226 222 249 257 240 201 185 184 211 203 168 163 166 179 163 150 141 127 112 104 100 94 85 77 65 60 53 47 38 31 31 26 32 24 22 31 33 32 23 11 4
219 230 240 246 245 253 259 248 201 169 177 206 206 186 174 170 190 159 149 145 131 119 110 103 95 87 79 67 60 58 47 39 32 27 20 21 18 12 26 29 30 26 15 357
238 247 230 244 238 246 250 255 238 202 186 211 224 209 177 167 175 145 140 133 124 121 121 112 96 83 74 66 58 55 48 41 31 20 26 28 25 18 34 21 27 25 13 8
239 231 224 239 242 243 250 252 232 216 216 223 222 225 185 168 169 158 144 127 119 113 107 103 95 81 71 65 62 59 54 45 33 26 28 28 35 29 24 22 27 24 19 13
245 214 225 237 240 240 261 254 238 244 241 247 243 244 189 174 178 173 152 133 126 120 112 102 95 87 78 70 62 60 57 48 38 33 31 29 35 31 28 30 29 27 23 19
261 222 222 241 242 245 267 258 268 265 256 246 255 259 195 176 181 170 160 143 131 120 111 103 98 90 78 69 61 60 57 49 43 40 36 32 31 31 31 29 26 22 24 24
251 231 214 230 241 238 249 244 252 265 277 273 289 274 160 163 169 166 156 144 131 123 116 107 101 92 79 67 60 57 57 50 44 43 39 33 31 31 32 26 25 21 26 26
276 249 231 217 227 244 254 252 243 244 231 255 254 246 116 115 109 127 135 132 127 124 117 107 97 87 84 76 64 59 57 51 46 46 43 38 32 31 32 27 26 28 26 25
301 277 247 245 251 257 269 270 283 273 271 252 209 164 121 101 113 123 130 130 128 121 112 105 97 89 81 77 69 64 59 54 47 46 48 48 41 37 33 30 30 29 22 23
261 274 262 252 251 243 260 285 306 288 293 287 250 176 168 150 151 149 144 140 132 127 118 110 102 93 85 79 73 69 64 59 50 45 42 48 43 42 40 39 35 29 26 26
312 296 278 264 259 279 275 271 286 294 300 299 307 92 174 180 175 166 153 145 140 134 126 114 107 99 93 85 80 75 70 64 57 52 46 43 43 43 43 43 37 30 25 27
320 301 293 297 324 335 296 290 295 296 300 299 308 111 119 141 157 163 147 138 134 129 125 119 114 106 97 88 80 74 70 67 64 62 57 52 52 50 47 46 39 36 32 29
345 325 303 306 334 337 315 309 311 310 297 299 306 96 118 115 119 130 129 129 129 129 126 123 118 112 105 95 85 77 72 69 67 69 67 58 55 58 54 50 45 41 41 37
301 288 292 286 289 278 286 288 294 294 291 299 309 147 143 133 125 126 129 131 133 134 130 127 124 118 110 100 92 88 77 71 73 70 65 60 55 53 52 51 49 47 45 45
303 288 289 289 282 267 270 277 290 296 306 312 338 103 127 132 128 128 133 137 138 136 133 131 126 120 113 107 101 92 83 74 74 77 73 72 72 61 56 53 51 50 48 54
323 299 299 287 268 266 275 290 298 310 320 337 19 68 95 110 116 123 135 142 143 140 136 131 126 123 118 116 108 96 88 83 82 82 81 80 77 71 62 59 56 58 57 56
316 309 301 292 292 282 282 322 333 358 13 12 28 84 106 111 117 129 140 145 144 140 136 133 131 124 117 110 104 105 103 94 89 85 84 82 80 75 65 64 64 61 60 62
288 304 299 294 309 293 358 5 7 39 47 55 75 88 100 109 113 116 127 135 139 138 135 132 127 121 119 113 107 104 104 103 101 93 87 89 89 86 77 69 64 65 65 67
222 271 288 294 298 288 351 10 8 34 55 49 78 90 96 108 112 104 111 123 125 129 129 126 123 121 119 116 117 112 107 109 106 100 88 82 82 83 81 77 71 69 72 72
203 227 262 283 293 306 3 343 340 48 81 44 83 107 119 136 133 131 129 122 118 121 122 125 125 125 123 124 125 121 111 103 99 96 90 85 83 85 81 73 71 73 71 74
234 238 252 276 283 28 357 339 344 17 64 47 97 114 127 128 90 126 129 125 123 126 130 132 131 126 125 126 124 119 110 106 100 98 95 90 91 96 91 80 73 76 75 75
323 312 313 307 293 25 4 13 39 51 63 78 97 108 104 102 113 124 129 129 130 130 133 132 127 124 125 127 125 119 113 113 105 100 95 94 93 93 100 96 81 85 94 101
360 4 345 6 42 73 42 53 67 70 82 92 104 109 114 120 128 131 132 135 136 136 134 132 130 127 128 132 133 124 118 118 116 110 104 102 94 79 81 91 105 115 122 125
9 358 338 37 66 60 52 55 64 76 89 102 111 119 126 131 134 136 137 139 140 139 139 138 135 134 134 137 132 124 122 123 119 117 116 117 111 100 80 44 47 54 41 34
327 333 352 18 59 72 51 48 63 85 100 105 112 123 130 135 137 139 140 142 142 141 140 139 139 139 138 135 133 131 128 126 127 130 135 131 121 103 85 70 46 57 58 54
330 338 336 1 22 40 51 50 78 103 109 114 120 123 130 137 141 141 142 145 145 143 142 144 145 142 140 139 137 132 132 139 144 148 148 144 142 142 138 127 103 59 79 85